Time,TemperatureF,DewpointF,PressureIn,WindDirection,WindDirectionDegrees,WindSpeedMPH,WindSpeedGustMPH,Humidity,HourlyPrecipIn,Conditions,Clouds,dailyrainin,SoftwareType,DateUTC
2013-03-31 00:00:00,47.0,20.0,-100.00,NE,43,1.0,5.0,34,-99.99,,,-99.99,,2013-03-31 07:00:00,
2013-03-31 01:00:00,48.0,20.0,-100.00,ENE,60,2.0,7.0,33,-99.99,,,-99.99,,2013-03-31 08:00:00,
2013-03-31 02:00:00,47.0,28.0,-100.00,ENE,65,2.0,5.0,47,-99.99,,,-99.99,,2013-03-31 09:00:00,
2013-03-31 03:00:00,47.0,30.0,-100.00,ENE,60,1.0,5.0,51,-99.99,,,-99.99,,2013-03-31 10:00:00,
2013-03-31 04:00:00,45.0,29.0,-100.00,ENE,66,3.0,8.0,54,-99.99,,,-99.99,,2013-03-31 11:00:00,
2013-03-31 07:00:00,44.0,30.0,-100.00,NE,51,1.0,6.0,58,-99.99,,,-99.99,,2013-03-31 14:00:00,
2013-03-31 08:00:00,46.0,31.0,-100.00,ENE,62,2.0,6.0,55,-99.99,,,-99.99,,2013-03-31 15:00:00,
2013-03-31 09:00:00,48.0,31.0,-100.00,ENE,78,3.0,6.0,52,-99.99,,,-99.99,,2013-03-31 16:00:00,
2013-03-31 11:00:00,48.0,33.0,-100.00,East,92,1.0,6.0,55,-99.99,,,-99.99,,2013-03-31 18:00:00,
2013-03-31 12:00:00,50.0,32.0,-100.00,East,90,2.0,8.0,50,-99.99,,,-99.99,,2013-03-31 19:00:00,
2013-03-31 13:00:00,53.0,33.0,-100.00,North,0,0.0,3.0,46,-99.99,,,-99.99,,2013-03-31 20:00:00,
2013-03-31 15:00:00,55.0,33.0,-100.00,North,0,0.0,1.0,44,-99.99,,,-99.99,,2013-03-31 22:00:00,
2013-03-31 16:00:00,56.0,34.0,-100.00,North,0,0.0,1.0,43,-99.99,,,-99.99,,2013-03-31 23:00:00,
2013-03-31 17:00:00,56.0,34.0,-100.00,North,0,0.0,3.0,43,-99.99,,,-99.99,,2013-04-01 00:00:00,
2013-03-31 18:00:00,53.0,34.0,-100.00,NW,316,2.0,8.0,49,-99.99,,,-99.99,,2013-04-01 01:00:00,
2013-03-31 19:00:00,46.0,35.0,-100.00,NNW,342,2.0,7.0,65,-99.99,,,-99.99,,2013-04-01 02:00:00,
2013-03-31 20:00:00,42.0,34.0,-100.00,North,9,2.0,8.0,72,-99.99,,,-99.99,,2013-04-01 03:00:00,
2013-03-31 21:00:00,41.0,38.0,-100.00,NNW,348,5.0,13.0,90,-99.99,,,-99.99,,2013-04-01 04:00:00,
2013-03-31 22:00:00,41.0,37.0,-100.00,NNW,335,7.0,14.0,86,-99.99,,,-99.99,,2013-04-01 05:00:00,
2013-03-31 23:00:00,38.0,36.0,-100.00,NNW,347,3.0,12.0,94,-99.99,,,-99.99,,2013-04-01 06:00:00,